Location: Bijele Vode
(45.2833°N, 16.2000°E)
Time: 14:18:43
(UTC+00:00)

Cosmos 1300 Rocket - Pass Details

Date: 18 September 2020
Orbit: 601 x 627 km, 82.5° (Epoch: 29 October)

Event Time Altitude Azimuth Distance (km) Brightness Sun altitude
Rises 18:15:38 0° 178° (S) 2,872 6.8 -14.0°
Reaches altitude 10° 18:17:51 10° 174° (S) 1,976 5.9 -14.3°
Maximum altitude 18:22:10 60° 95° (E) 714 3.5 -15.0°
Drops below altitude 10° 18:26:33 10° 16° (NNE) 2,006 6.2 -15.8°
Sets 18:28:49 0° 13° (NNE) 2,920 7.1 -16.2°
